Home   Weather   Mulhouse   Past weeks

Flag for France Past Weather in Mulhouse, Alsace, France — Yesterday and Last 2 Weeks

Now
52 °F

Fog.


Feels Like: 51 °F
Forecast: 49 / 75 °F
Wind: 5 mph from South

Location: Bale-Mulhouse

Current Time: Sep 28, 2016 at 7:14:34 AM

Latest Report: Sep 28, 2016 at 6:30 AM


Visibility: 2 mi

Pressure: 30.39 "Hg

Humidity: 94%

Dew Point: 50 °F

Location of MulhouseLocation

Past Weather in Mulhouse — Graph

°F

Mulhouse Temperature Yesterday

Maximum temperature yesterday: 72 °F (at 5:00 PM)
Minimum temperature yesterday: 52 °F (at 11:30 PM)
Average temperature yesterday: 61 °F

High & Low Weather Summary for the Past Weeks

 TemperatureHumidityPressure
High88 °F (Sep 13, 3:00 PM)100% (Sep 15, 4:00 AM)30.39 "Hg (Sep 15, 4:00 AM)
Low41 °F (Sep 24, 7:30 AM)35% (Sep 13, 4:00 PM)29.77 "Hg (Sep 15, 3:00 AM)
Average61 °F81%30.08 "Hg
* Reported Sep 13 6:00 AM — Sep 28 6:00 AM, Mulhouse, Weather by CustomWeather, © 2016

Note: Actual official high and low records may vary slightly from our data, if they occured in-between our weather recording intervals... More about our weather records

Advertising

Mulhouse Weather History for the Previous 24 Hours

Scroll right to see more
 ConditionsComfort  
Time TempWeatherWind HumidityBarometerVisibility
6:00 AM
Wed, Sep 28
48 °FFog.2 mph100%30.39 "Hg2 mi
5:30 AM48 °FFog.3 mph94%30.39 "Hg2 mi
5:00 AM48 °FFog.3 mph94%30.39 "Hg2 mi
4:30 AM48 °FClear.1 mph100%30.39 "Hg4 mi
4:00 AM48 °FClear.3 mph100%30.39 "Hg4 mi
3:30 AM48 °FClear.3 mph100%30.39 "Hg4 mi
3:00 AM50 °FPassing clouds.2 mph94%30.39 "Hg3 mi
2:30 AM48 °FFog.No wind100%30.39 "Hg2 mi
2:00 AM50 °FFog.No wind94%30.39 "Hg3 mi
1:30 AM50 °FPassing clouds.2 mph94%30.39 "Hg4 mi
1:00 AM50 °FFog.2 mph100%30.39 "Hg3 mi
12:30 AM52 °FPassing clouds.2 mph94%30.39 "Hg4 mi
12:00 AM52 °FClear.3 mph100%30.36 "Hg4 mi
11:30 PM
Tue, Sep 27
52 °FClear.2 mph100%30.36 "Hg4 mi
11:00 PM54 °FClear.3 mph94%30.36 "Hg5 mi
10:30 PM54 °FClear.No wind94%30.36 "Hg5 mi
10:00 PM55 °FClear.2 mph88%30.36 "Hg10 mi
9:30 PM57 °FClear.1 mph88%30.36 "Hg10 mi
9:00 PM57 °FClear.3 mph94%30.36 "Hg10 mi
8:30 PM59 °FClear.5 mph88%30.33 "Hg10 mi
8:00 PM61 °FClear.5 mph83%30.33 "Hg10 mi
7:30 PM63 °FClear.2 mph77%30.33 "Hg10 mi
7:00 PM66 °FPassing clouds.2 mph73%30.33 "HgN/A
6:30 PM68 °FPassing clouds.2 mph64%30.30 "HgN/A
6:00 PM70 °FPassing clouds.3 mph60%30.30 "HgN/A
5:30 PM70 °FPassing clouds.3 mph60%30.30 "HgN/A
5:00 PM72 °FPassing clouds.3 mph57%30.30 "HgN/A
4:30 PM70 °FPassing clouds.2 mph60%30.30 "HgN/A
4:00 PM70 °FPassing clouds.2 mph60%30.30 "HgN/A
3:30 PM70 °FPassing clouds.3 mph60%30.30 "HgN/A
3:00 PM68 °FPassing clouds.3 mph64%30.30 "HgN/A
2:30 PM66 °FScattered clouds.5 mph73%30.30 "HgN/A
2:00 PM68 °FBroken clouds.5 mph69%30.30 "HgN/A
1:30 PM66 °FBroken clouds.5 mph73%30.30 "HgN/A
1:00 PM66 °FPartly sunny.5 mph73%30.30 "HgN/A
12:30 PM64 °FPartly sunny.3 mph78%30.30 "HgN/A
12:00 PM63 °FMostly cloudy.3 mph83%30.30 "HgN/A
11:30 AM63 °FMostly cloudy.5 mph83%30.30 "HgN/A
11:00 AM61 °FBroken clouds.5 mph83%30.30 "HgN/A
10:30 AM61 °FMostly cloudy.6 mph88%30.30 "Hg6 mi
10:00 AM59 °FMore clouds than sun.7 mph88%30.30 "Hg6 mi
9:30 AM59 °FOvercast.3 mph94%30.27 "Hg6 mi
9:00 AM59 °FPartly sunny.2 mph94%30.27 "Hg6 mi
8:30 AM57 °FPartly sunny.2 mph94%30.27 "Hg6 mi
8:00 AM57 °FPartly sunny.No wind94%30.24 "HgN/A
7:30 AM57 °FPartly sunny.No wind94%30.24 "HgN/A
7:00 AM57 °FOvercast.2 mph94%30.24 "HgN/A
Weather by CustomWeather, © 2016

See weather overviewHow to use our weather pages